Skip to main content Skip to accessibility
This website is not compatible with your web browser. You should install a newer browser. If you live in Jersey and need help upgrading call the States of Jersey web team on 440099.
Homegov.je

L'înformâtion et les sèrvices publyis pouor I'Île dé Jèrri

  • Choose the service you want to log in to:

  • gov.je

    Update your notification preferences

  • one.gov.je

    Access government and parish services

  • CAESAR

    Clear goods through customs or claim relief

  • Talentlink

    View or update your States of Jersey job application

Local METARs

METAR EGJJ 150820Z 03008KT 9999 VCSH FEW018 SCT022 07/06 Q1002

METAR EGJB 150820Z 02014KT 9999 SCT018 07/04 Q1003

METAR EGJA 150820Z 01018KT 9999 FEW018 SCT020 07/05 Q1003

METAR LFRD 150830Z AUTO 20004KT 190V250 5000 BR FEW027 SCT033 BKN043 02/02 Q1002 TEMPO SHRA BKN020CB BECMG 01010KT

METAR LFRC 150830Z AUTO 01012KT 9999 BKN019 BKN025 BKN033 07/04 Q1002 BECMG 01015G25KT

 

 

 

​Times are in Greenwich Mean Time (GMT) and not British Summer Time (BST). They will be one hour different during BST.

Back to top
rating button